Regional Weather Roundup
Issued by NWS

Home | Current Version | Previous Version | Graphics & Text | Print | Product List | Glossary On
Versions: 1 2 3 4 5 6 7 8 9 10 11 12 13 14 15 16 17 18 19 20 21 22 23 24 25 26 27 28 29 30 31 32 33 34 35 36 37 38 39 40 41 42 43 44 45 46 47 48 49
000
ASUS45 KBOU 022207
RWRCO

WEATHER ROUNDUP FOR COLORADO
NATIONAL WEATHER SERVICE DENVER/BOULDER CO
400 PM MDT TUE JUN 02 2015

NOTE: "FAIR" INDICATES FEW OR NO CLOUDS BELOW 12000 FEET WITH NO
SIGNIFICANT WEATHER AND/OR OBSTRUCTIONS TO VISIBILITY.

COZ001>005-013-030-031-022300-
...NORTHWEST COLORADO...

CITY           SKY/WX    TMP DP  RH WIND       PRES   REMARKS
CRAIG          SUNNY     78  30  17 SW17G25   30.01F
HAYDEN         SUNNY     77  28  16 W20G26    30.03F
MEEKER         SUNNY     80  26  13 SW18      30.02F
MOUNT WERNER   NOT AVBL
STEAMBOAT SPGS SUNNY     74  32  21 W15G21    30.05F
WALDEN         MOSUNNY   70  27  19 W16G22    30.13F
$$

COZ006>008-011-022300-
...WEST CENTRAL VALLEYS...

CITY           SKY/WX    TMP DP  RH WIND       PRES   REMARKS
GRAND JUNCTION SUNNY     86  22   9 NW10      29.91F
MONTROSE       SUNNY     85  16   7 SW13G25   30.01F
EAGLE          SUNNY     86  34  15 SW16G28   30.04F
RIFLE          SUNNY     83  29  14 W16       29.95F
DELTA          SUNNY     90  17   6 SW16G25   29.96F
NUCLA          SUNNY     82  14   7 SW21G28   30.07F
$$

COZ017>023-064>068-022300-
...SOUTHWEST COLORADO...

CITY           SKY/WX    TMP DP  RH WIND       PRES   REMARKS
DURANGO        SUNNY     79  21  11 SW12      30.09
CORTEZ         SUNNY     83  17   8 SW12G18   30.07F
PAGOSA SPRINGS SUNNY     76  10   8 S10G21    30.19F
TELLURIDE      SUNNY     70  14  11 SW14G22   30.28S
WOLF CREEK PAS NOT AVBL
$$

COZ009-010-012-014-032>034-037-058>063-022300-
...CENTRAL COLORADO...

CITY           SKY/WX    TMP DP  RH WIND       PRES   REMARKS
ASPEN          SUNNY     74  26  16 W10G18    30.13F
BUENA VISTA    SUNNY     76  16  10 W6G20     30.12F
COPPER MTN     SUNNY     55  10  16 SW10G18   30.44F
BERTHOUD PASS  FAIR      46  39  76 W14       30.47F
COTTONWOOD PAS NOT AVBL
GUNNISON       SUNNY     75  23  14 SW10G20   30.15F
KREMMLING      SUNNY     77  18  10 W9G21     30.09F
LEADVILLE      SUNNY     66  14  13 W12       30.27F
MONARCH PASS   SUNNY     54  23  30 W14G33    30.55S
SALIDA         MOSUNNY   79  28  15 S8        30.15F
SUNLIGHT       SUNNY     63  25  23 CALM      30.36F
WILKERSON PASS MOSUNNY   64  19  17 SW8G18    30.40F
$$

COZ069>075-022300-
...SAN LUIS VALLEY/SANGRE DE CRISTO MOUNTAINS...

CITY           SKY/WX    TMP DP  RH WIND       PRES   REMARKS
ALAMOSA        SUNNY     81  11   7 W14       30.12F
LA VETA PASS   SUNNY    N/A N/A N/A MISG      30.31F
SAGUACHE       SUNNY     77  25  14 E5        30.12F
$$

COZ035-036-038>040-022300-
...NORTHERN COLORADO FRONT RANGE...

CITY           SKY/WX    TMP DP  RH WIND       PRES   REMARKS
DENVER INTL AP MOSUNNY   86  41  20 E12       29.89F
DMNS CITY PARK   N/A     88  33  14 NE6G15    29.87S
AURORA         MOSUNNY   85  43  22 E13       29.90F
FRONT RANGE AP MOSUNNY   88  37  16 E12       29.91F
ERIE MUNI ARPT SUNNY     88  31  13 NE7       29.87F
BOULDER MUN AP SUNNY     86  36  16 NE6       29.88F
CENTENNIAL     MOSUNNY   86  25  11 SW7       29.91F
BROOMFIELD     MOSUNNY   86  36  16 E6        29.92F
FORT COLLINS   SUNNY     86  37  17 W12G17    29.84F
LONGMONT       SUNNY     91  34  13 SE3       29.88F
$$

COZ041-046-047-076>085-087-088-022300-
...PIKES PEAK/PALMER DIVIDE AND SOUTHERN FOOTHILLS...

CITY           SKY/WX    TMP DP  RH WIND       PRES   REMARKS
COLO. SPRINGS  MOSUNNY   84  30  14 S16G23    29.96F
A. F. ACADEMY  SUNNY     83  27  13 SW13      29.97F
ELLICOTT       SUNNY    N/A N/A N/A S10G23    29.97F
FALCON         SUNNY     84  24  11 CALM      30.03F
FORT CARSON    SUNNY     84  37  18 S18       29.93F
LIMON          MOSUNNY   84  40  21 NE6       29.92F
MONUMENT HILL  SUNNY     81  32  17 S8        30.04F
TRINIDAD       SUNNY     87  34  15 NE5       29.96F
$$

COZ042>045-048>051-090-091-022300-
...NORTHEAST COLORADO...

CITY           SKY/WX    TMP DP  RH WIND       PRES   REMARKS
GREELEY ARPT   SUNNY     90  45  20 S5G18     29.86F
AKRON          SUNNY     86  47  25 W7        29.87F
BURLINGTON     SUNNY     89  54  30 S9        29.85F
WRAY           SUNNY     90  61  37 CALM      29.82F
STERLING       SUNNY     86  55  35 SW7       29.81F
HOLYOKE        NOT AVBL
FORT MORGAN    SUNNY     88  38  17 W3        29.86F
$$

COZ086-089-092>099-022300-
...SOUTHEAST COLORADO...

CITY           SKY/WX    TMP DP  RH WIND       PRES   REMARKS
PUEBLO         SUNNY     87  41  19 S6        29.86F
LA JUNTA       SUNNY     92  43  18 SE6       29.85F
LAMAR          SUNNY     92  43  18 CALM      29.81F
SPRINGFIELD      N/A     88  50  27 S13G20    29.87F
$$


USA.gov is the U.S. government's official web portal to all federal, state and local government web resources and services.